EW6513 Weather Reports


Display with metric or nautical units.
time (UTC)temp
F
wind
direction
speed
MPH
gust
MPH
rain 1hr
in
rain 24hr
in
rain mn
in
humidity
%
barometer
mb
20260506192335 59 232 4.0 14.0 0.08 0.21 0.21 95 1005.9
20260506191828 59 215 4.0 14.0 0.07 0.20 0.20 94 1005.9
20260506191322 59 261 4.0 13.0 0.06 0.19 0.20 94 1005.9
20260506190817 59 289 4.0 13.0 0.06 0.19 0.19 94 1005.9
20260506190311 59 166 4.0 12.0 0.05 0.18 0.18 94 1006.1
20260506185805 59 214 4.0 14.0 0.05 0.18 0.18 94 1005.9
20260506185529 59 227 4.0 14.0 0.04 0.17 0.17 94 1005.9
20260506184753 59 178 4.0 15.0 0.04 0.17 0.17 94 1005.9
20260506184247 59 273 5.0 15.0 0.03 0.16 0.16 94 1005.9
20260506183740 59 307 4.0 15.0 0.02 0.15 0.16 94 1006.0
20260506183234 59 265 3.0 14.0 0.01 0.14 0.14 94 1006.0
20260506182729 59 223 5.0 15.0 0.00 0.13 0.13 94 1006.1
20260506182223 59 235 4.0 15.0 0.00 0.13 0.13 94 1005.9
20260506181717 59 234 3.0 12.0 0.00 0.13 0.13 94 1006.1
20260506181211 59 233 5.0 13.0 0.00 0.13 0.13 94 1006.1
20260506180705 59 196 5.0 13.0 0.01 0.13 0.13 94 1006.2
20260506180159 59 246 4.0 13.0 0.01 0.13 0.13 93 1006.2
20260506175923 60 149 4.0 14.0 0.02 0.13 0.13 94 1006.2
20260506175147 60 213 5.0 14.0 0.02 0.13 0.13 94 1006.3
20260506174641 60 217 5.0 15.0 0.02 0.13 0.13 94 1006.3
20260506174135 60 226 4.0 15.0 0.03 0.13 0.13 94 1006.4
20260506173900 60 225 4.0 13.0 0.04 0.13 0.13 94 1006.3
20260506173124 60 243 4.0 13.0 0.05 0.13 0.13 94 1006.3
20260506173119 60 259 4.0 9.0 0.06 0.13 0.13 94 1006.3
20260506172110 60 211 4.0 10.0 0.06 0.13 0.13 94 1006.3
20260506171604 60 215 4.0 12.0 0.07 0.13 0.13 93 1006.5
20260506171058 60 183 4.0 12.0 0.07 0.12 0.12 94 1006.5
20260506170552 60 236 4.0 12.0 0.07 0.12 0.12 93 1006.4
20260506170047 59 174 5.0 14.0 0.08 0.12 0.12 93 1006.2
20260506165541 59 223 6.0 14.0 0.07 0.11 0.11 93 1006.2
20260506165035 59 227 5.0 13.0 0.08 0.11 0.11 92 1006.3
20260506164529 60 241 4.0 11.0 0.07 0.10 0.10 92 1006.2
20260506164023 60 180 4.0 11.0 0.07 0.10 0.10 93 1006.3
20260506163516 60 226 4.0 11.0 0.07 0.09 0.09 92 1006.8
20260506163241 60 227 5.0 11.0 0.06 0.08 0.08 92 1007.1
20260506162504 60 183 5.0 12.0 0.05 0.07 0.07 92 1007.1
20260506161958 60 238 3.0 12.0 0.05 0.06 0.07 92 1007.3
20260506161453 60 199 3.0 10.0 0.05 0.06 0.06 92 1007.4
20260506160947 60 207 4.0 10.0 0.04 0.05 0.05 92 1007.5
20260506160441 60 209 4.0 10.0 0.05 0.05 0.05 91 1007.6
20260506155935 60 209 3.0 11.0 0.04 0.04 0.04 91 1007.7
20260506155428 60 208 4.0 11.0 0.03 0.03 0.04 91 1007.7
20260506154923 61 196 4.0 12.0 0.03 0.03 0.03 90 1007.7
20260506154417 61 193 4.0 17.0 0.03 0.03 0.03 90 1007.8
20260506153911 62 244 4.0 17.0 0.02 0.02 0.02 90 1007.8
20260506153635 62 261 3.0 12.0 0.02 0.02 0.02 90 1007.7
20260506152904 62 238 3.0 8.0 0.01 0.01 0.01 89 1007.5
20260506152859 62 249 4.0 10.0 0.02 0.02 0.02 90 1007.6
20260506151901 62 247 3.0 9.0 0.01 0.01 0.01 89 1007.4
20260506151359 62 222 3.0 9.0 0.01 0.01 0.01 88 1007.5
20260506150855 62 201 3.0 11.0 0.00 0.00 0.01 86 1007.7
20260506150358 62 243 4.0 16.0 0.00 0.00 0.00 84 1007.7
20260506145858 63 226 4.0 16.0 0.00 0.00 0.00 81 1007.8
20260506145627 64 211 4.0 11.0 0.00 0.00 0.00 80 1007.8
20260506144854 64 227 6.0 15.0 0.00 0.00 0.00 79 1007.8
20260506144354 64 230 7.0 15.0 0.00 0.00 0.00 79 1007.8
20260506143854 64 265 5.0 14.0 0.00 0.00 0.00 79 1007.8
20260506143355 64 221 5.0 14.0 0.00 0.00 0.00 79 1007.9
20260506142853 64 227 4.0 12.0 0.00 0.00 0.00 78 1007.9
20260506142625 64 178 3.0 10.0 0.00 0.00 0.00 79 1007.9
20260506141854 64 204 4.0 14.0 0.00 0.00 0.00 79 1007.8
20260506141354 64 220 5.0 14.0 0.00 0.00 0.00 79 1007.6
20260506140855 64 259 4.0 12.0 0.00 0.00 0.00 79 1007.7
20260506140354 64 220 4.0 12.0 0.00 0.00 0.00 80 1007.7
20260506135853 64 233 4.0 19.0 0.00 0.00 0.00 80 1007.7
20260506135355 64 271 5.0 19.0 0.00 0.00 0.00 79 1007.7
20260506134853 63 225 5.0 13.0 0.00 0.00 0.00 80 1007.8
20260506134354 63 214 5.0 12.0 0.00 0.00 0.00 80 1007.8
20260506134125 63 250 5.0 13.0 0.00 0.00 0.00 80 1007.8
20260506133353 63 265 5.0 13.0 0.00 0.00 0.00 79 1007.9
20260506132853 63 202 5.0 12.0 0.00 0.00 0.00 80 1008.0
20260506132354 63 229 4.0 12.0 0.00 0.00 0.00 79 1008.0
20260506131853 64 190 4.0 12.0 0.00 0.00 0.00 80 1008.1
20260506131625 64 255 5.0 17.0 0.00 0.00 0.00 80 1007.9
20260506130855 63 319 5.0 17.0 0.00 0.00 0.00 80 1007.8
20260506130355 63 237 4.0 14.0 0.00 0.00 0.00 79 1008.1
20260506130122 63 204 4.0 14.0 0.00 0.00 0.00 81 1008.0
20260506125351 63 199 5.0 14.0 0.00 0.00 0.00 80 1007.9
20260506124849 63 224 5.0 14.0 0.00 0.00 0.00 80 1007.7
20260506124349 63 338 5.0 14.0 0.00 0.00 0.00 81 1007.7
20260506124122 63 218 5.0 14.0 0.00 0.00 0.00 82 1007.5
20260506123615 63 236 5.0 14.0 0.00 0.00 0.00 81 1007.6
20260506122838 63 211 4.0 11.0 0.00 0.00 0.00 82 1007.6
20260506122331 62 249 5.0 13.0 0.00 0.00 0.00 82 1007.8
20260506121825 62 210 5.0 13.0 0.00 0.00 0.00 82 1007.9
20260506121320 62 242 4.0 16.0 0.00 0.00 0.00 82 1007.9
20260506120813 62 200 3.0 13.0 0.00 0.00 0.00 82 1008.0
20260506120534 62 188 5.0 18.0 0.00 0.00 0.00 82 1008.0
20260506120409 62 184 5.0 15.0 0.00 0.00 0.00 83 1008.0
20260506115256 62 221 5.0 14.0 0.00 0.00 0.00 83 1008.0
20260506114749 62 265 6.0 16.0 0.00 0.00 0.00 82 1008.0
20260506114244 62 180 6.0 21.0 0.00 0.00 0.00 83 1008.0
20260506114008 62 186 4.0 21.0 0.00 0.00 0.00 82 1008.1
20260506113231 62 209 5.0 11.0 0.00 0.00 0.00 82 1007.9
20260506112956 62 249 6.0 18.0 0.00 0.00 0.00 83 1008.0
20260506112219 62 225 6.0 18.0 0.00 0.00 0.00 82 1007.9
20260506111713 62 203 5.0 14.0 0.00 0.00 0.00 83 1007.9
20260506111207 62 202 4.0 12.0 0.00 0.00 0.00 83 1007.8
20260506110707 62 224 5.0 10.0 0.00 0.00 0.00 83 1007.9
20260506110207 61 215 5.0 11.0 0.00 0.00 0.00 83 1007.9
20260506105707 61 231 4.0 11.0 0.00 0.00 0.00 84 1007.8
20260506105207 61 207 4.0 13.0 0.00 0.00 0.00 84 1007.9
20260506104708 61 232 5.0 13.0 0.00 0.00 0.00 84 1007.8
20260506104207 61 211 4.0 11.0 0.00 0.00 0.00 85 1007.6
20260506103708 60 212 4.0 12.0 0.00 0.00 0.00 85 1007.7
20260506103206 60 198 4.0 13.0 0.00 0.00 0.00 85 1007.7
20260506102703 60 202 4.0 13.0 0.00 0.00 0.00 85 1007.8
20260506102204 60 194 4.0 11.0 0.00 0.00 0.00 85 1007.9
20260506101702 60 209 4.0 14.0 0.00 0.00 0.00 85 1007.7
20260506101201 60 207 4.0 14.0 0.00 0.00 0.00 85 1007.6
20260506100701 60 193 4.0 9.0 0.00 0.00 0.00 85 1007.7
20260506100202 60 207 4.0 15.0 0.00 0.00 0.00 85 1007.7
20260506095701 60 216 4.0 15.0 0.00 0.00 0.00 85 1007.7
20260506095201 60 209 3.0 10.0 0.00 0.00 0.00 85 1007.7
20260506094927 60 212 3.0 8.0 0.00 0.00 0.00 85 1007.6
20260506094150 60 226 3.0 9.0 0.00 0.00 0.00 85 1007.6
20260506093644 60 250 4.0 9.0 0.00 0.00 0.00 85 1007.6
20260506093137 60 218 4.0 13.0 0.00 0.00 0.00 85 1007.6
20260506092632 60 233 5.0 12.0 0.00 0.00 0.00 85 1007.7
20260506092126 60 243 5.0 14.0 0.00 0.00 0.00 86 1007.7
20260506091620 60 210 3.0 9.0 0.00 0.00 0.00 86 1007.8
20260506091113 60 204 4.0 10.0 0.00 0.00 0.00 86 1007.8
20260506090838 60 211 3.0 10.0 0.00 0.00 0.00 86 1007.7
20260506085555 59 248 3.0 8.0 0.00 0.00 0.00 86 1007.9
20260506085050 59 193 2.0 8.0 0.00 0.00 0.00 86 1007.8
20260506084815 60 248 3.0 11.0 0.00 0.00 0.00 85 1007.9
20260506084038 60 224 4.0 11.0 0.00 0.00 0.00 85 1007.9
20260506083531 59 249 4.0 10.0 0.00 0.00 0.00 85 1007.9
20260506083257 60 225 3.0 9.0 0.00 0.00 0.00 85 1007.8
20260506082520 60 207 3.0 11.0 0.00 0.00 0.00 84 1007.9
20260506082014 60 229 3.0 11.0 0.00 0.00 0.00 85 1007.9
20260506081739 60 227 3.0 8.0 0.00 0.00 0.00 84 1007.9
20260506081001 60 211 4.0 12.0 0.00 0.00 0.00 83 1007.9
20260506080726 60 219 4.0 12.0 0.00 0.00 0.00 83 1008.0
20260506080223 60 234 4.0 11.0 0.00 0.00 0.00 82 1007.9
20260506073454 60 257 4.0 13.0 0.00 0.00 0.00 81 1007.9
20260506072953 60 219 3.0 8.0 0.00 0.00 0.00 81 1007.9
20260506072724 60 250 4.0 8.0 0.00 0.00 0.00 81 1007.9
20260506071954 60 197 4.0 10.0 0.00 0.00 0.00 81 1008.0
20260506071723 60 221 3.0 10.0 0.00 0.00 0.00 81 1008.0
20260506070954 61 228 3.0 10.0 0.00 0.00 0.00 79 1007.9
20260506070449 61 227 3.0 11.0 0.00 0.00 0.00 79 1008.0
20260506062450 62 221 5.0 15.0 0.00 0.00 0.00 76 1008.4
20260506061949 62 209 4.0 12.0 0.00 0.00 0.00 76 1008.3
20260506061449 62 208 4.0 10.0 0.00 0.00 0.00 76 1008.4
20260506061221 62 224 4.0 11.0 0.00 0.00 0.00 76 1008.5
20260506060720 62 200 4.0 11.0 0.00 0.00 0.00 76 1008.5
20260506050949 63 238 4.0 9.0 0.00 0.00 0.00 73 1008.9
20260506050451 63 227 4.0 10.0 0.00 0.00 0.00 72 1008.9
20260506044933 63 211 4.0 10.0 0.00 0.00 0.00 72 1009.1
20260506044430 63 219 4.0 11.0 0.00 0.00 0.00 72 1009.1
20260506043928 63 246 4.0 11.0 0.00 0.00 0.00 71 1009.1
20260506043428 63 253 4.0 10.0 0.00 0.00 0.00 71 1009.0
20260506042928 64 233 5.0 10.0 0.00 0.00 0.00 70 1009.1
20260506042426 64 223 5.0 10.0 0.00 0.00 0.00 70 1009.1
20260506041927 64 238 4.0 9.0 0.00 0.00 0.00 70 1009.1
20260506041817 64 217 4.0 12.0 0.00 0.00 0.00 70 1009.1
20260506041705 64 249 4.0 11.0 0.00 0.00 0.00 70 1009.0
20260506040658 64 239 5.0 12.0 0.00 0.00 0.00 70 1009.1
20260506035926 64 215 4.0 10.0 0.00 0.00 0.00 70 1009.0
20260506035425 64 239 3.0 9.0 0.00 0.00 0.00 70 1009.0
20260506034926 64 221 3.0 9.0 0.00 0.00 0.00 70 1009.0
20260506034427 64 206 3.0 10.0 0.00 0.00 0.00 70 1009.0
20260506033927 64 247 4.0 10.0 0.00 0.00 0.00 69 1009.1
20260506033425 64 205 3.0 10.0 0.00 0.00 0.00 69 1008.9
20260506032925 64 250 4.0 14.0 0.00 0.00 0.00 68 1008.9
20260506032426 65 247 4.0 14.0 0.00 0.00 0.00 68 1008.9
20260506031925 65 229 5.0 15.0 0.00 0.00 0.00 67 1008.9
20260506031425 65 242 6.0 16.0 0.00 0.00 0.00 67 1008.9
20260506030926 65 223 6.0 16.0 0.00 0.00 0.00 66 1008.9
20260506030426 65 229 5.0 16.0 0.00 0.00 0.00 66 1009.1
20260506025925 65 236 5.0 15.0 0.00 0.00 0.00 66 1009.0
20260506025425 66 215 5.0 15.0 0.00 0.00 0.00 65 1008.9
20260506024926 66 227 6.0 15.0 0.00 0.00 0.00 64 1008.9
20260506024425 66 210 6.0 15.0 0.00 0.00 0.00 63 1008.9
20260506024157 66 223 6.0 17.0 0.00 0.00 0.00 63 1008.9
20260506023424 67 305 7.0 17.0 0.00 0.00 0.00 62 1009.0
20260506022926 67 220 6.0 17.0 0.00 0.00 0.00 61 1008.9
20260506022423 67 221 5.0 17.0 0.00 0.00 0.00 60 1008.9
20260506021921 67 200 6.0 21.0 0.00 0.00 0.00 59 1009.0
20260506021421 68 225 7.0 21.0 0.00 0.00 0.00 58 1008.8
20260506020919 68 199 6.0 19.0 0.00 0.00 0.00 57 1008.7
20260506020420 68 226 4.0 16.0 0.00 0.00 0.00 56 1008.7
20260506015918 68 223 4.0 13.0 0.00 0.00 0.00 56 1008.7
20260506015416 68 233 5.0 16.0 0.00 0.00 0.00 54 1008.7
20260506014917 69 198 5.0 16.0 0.00 0.00 0.00 54 1008.7
20260506014912 69 211 5.0 16.0 0.00 0.00 0.00 54 1008.7
20260506014134 69 191 5.0 16.0 0.00 0.00 0.00 53 1008.7
20260506013400 68 198 4.0 15.0 0.00 0.00 0.00 54 1008.7
20260506012859 69 207 5.0 11.0 0.00 0.00 0.00 53 1008.6
20260506012357 69 227 5.0 16.0 0.00 0.00 0.00 53 1008.6
20260506011859 69 199 4.0 16.0 0.00 0.00 0.00 54 1008.5
20260506011358 69 225 3.0 11.0 0.00 0.00 0.00 53 1008.4
20260506010858 69 184 3.0 9.0 0.00 0.00 0.00 54 1008.3
20260506010358 69 180 4.0 11.0 0.00 0.00 0.00 53 1008.3
20260506005857 69 219 4.0 11.0 0.00 0.00 0.00 53 1008.3
20260506005357 69 265 3.0 8.0 0.00 0.00 0.00 52 1008.1
20260506004856 69 211 4.0 13.0 0.00 0.00 0.00 52 1008.1
20260506004356 70 189 4.0 14.0 0.00 0.00 0.00 51 1008.1
20260506004126 70 233 4.0 14.0 0.00 0.00 0.00 50 1008.0
20260506003356 70 256 5.0 13.0 0.00 0.00 0.00 49 1007.9
20260506002857 71 197 5.0 13.0 0.00 0.00 0.00 48 1007.9
20260506002358 70 195 4.0 13.0 0.00 0.00 0.00 47 1007.8
20260506001857 71 216 5.0 13.0 0.00 0.00 0.00 46 1007.7
20260506001630 71 215 5.0 13.0 0.00 0.00 0.00 46 1007.7
20260506000852 71 204 5.0 15.0 0.00 0.00 0.00 46 1007.7
20260506000346 71 217 4.0 15.0 0.00 0.00 0.00 44 1007.6
20260505235844 71 219 4.0 13.0 0.00 0.00 0.00 44 1007.5
20260505235615 71 256 4.0 13.0 0.00 0.00 0.00 44 1007.5
20260505234848 72 294 5.0 15.0 0.00 0.00 0.00 43 1007.5
20260505234843 72 211 5.0 15.0 0.00 0.00 0.00 43 1007.5
20260505233841 72 261 4.0 18.0 0.00 0.00 0.00 44 1007.4
20260505233341 72 217 5.0 18.0 0.00 0.00 0.00 42 1007.4
20260505232841 72 207 4.0 12.0 0.00 0.00 0.00 43 1007.4
20260505232341 73 220 4.0 14.0 0.00 0.00 0.00 42 1007.3
20260505231842 73 232 4.0 14.0 0.00 0.00 0.00 42 1007.3
20260505231341 73 261 3.0 10.0 0.00 0.00 0.00 41 1007.2
20260505231112 73 231 3.0 15.0 0.00 0.00 0.00 41 1007.1
20260505230341 73 238 4.0 15.0 0.00 0.00 0.00 42 1007.0
20260505225840 73 206 5.0 17.0 0.00 0.00 0.00 41 1007.1
20260505225341 74 259 6.0 17.0 0.00 0.00 0.00 39 1007.0
20260505224842 74 236 5.0 18.0 0.00 0.00 0.00 39 1006.9
20260505224342 74 246 4.0 18.0 0.00 0.00 0.00 38 1006.8
20260505223841 74 244 5.0 14.0 0.00 0.00 0.00 40 1006.8
20260505223335 75 259 6.0 19.0 0.00 0.00 0.00 37 1006.8
20260505222830 75 270 5.0 19.0 0.00 0.00 0.00 37 1006.8
20260505222556 76 200 5.0 18.0 0.00 0.00 0.00 36 1006.7
20260505221824 76 213 5.0 17.0 0.00 0.00 0.00 37 1006.8
20260505221324 76 252 6.0 21.0 0.00 0.00 0.00 37 1006.8
20260505220827 76 223 7.0 21.0 0.00 0.00 0.00 35 1006.7
20260505220326 76 202 6.0 21.0 0.00 0.00 0.00 34 1006.8
20260505215825 76 202 6.0 21.0 0.00 0.00 0.00 35 1006.8
20260505215326 77 216 6.0 20.0 0.00 0.00 0.00 37 1006.7
20260505214825 76 240 6.0 19.0 0.00 0.00 0.00 36 1006.7
20260505214330 76 259 6.0 18.0 0.00 0.00 0.00 36 1006.7
20260505214325 76 242 6.0 19.0 0.00 0.00 0.00 36 1006.8
20260505213324 76 210 6.0 18.0 0.00 0.00 0.00 37 1006.6
20260505212822 76 277 6.0 18.0 0.00 0.00 0.00 36 1006.7
20260505212323 76 275 6.0 18.0 0.00 0.00 0.00 36 1006.5
20260505211823 77 206 6.0 19.0 0.00 0.00 0.00 35 1006.5
20260505211322 77 204 7.0 24.0 0.00 0.00 0.00 34 1006.5
20260505210821 77 226 9.0 24.0 0.00 0.00 0.00 33 1006.5
20260505210318 78 199 9.0 28.0 0.00 0.00 0.00 33 1006.5
20260505205817 79 255 9.0 28.0 0.00 0.00 0.00 31 1006.4
20260505205316 79 222 8.0 22.0 0.00 0.00 0.00 34 1006.4
20260505205047 80 246 8.0 22.0 0.00 0.00 0.00 34 1006.3
20260505204547 79 296 8.0 26.0 0.00 0.00 0.00 36 1006.3
20260505203821 79 257 7.0 21.0 0.00 0.00 0.00 36 1006.2
20260505203816 79 259 8.0 26.0 0.00 0.00 0.00 33 1006.3
20260505202817 80 283 7.0 17.0 0.00 0.00 0.00 33 1006.5
20260505202318 80 191 6.0 16.0 0.00 0.00 0.00 35 1006.4
20260505201816 80 248 7.0 20.0 0.00 0.00 0.00 38 1006.6
20260505201317 79 252 8.0 20.0 0.00 0.00 0.00 39 1006.4
20260505200817 80 220 8.0 22.0 0.00 0.00 0.00 38 1006.4
20260505200316 80 196 7.0 22.0 0.00 0.00 0.00 37 1006.4
20260505195817 80 233 7.0 20.0 0.00 0.00 0.00 37 1006.6
20260505195318 79 228 8.0 20.0 0.00 0.00 0.00 38 1006.6
20260505194817 80 279 9.0 25.0 0.00 0.00 0.00 38 1006.6
20260505194320 80 272 7.0 25.0 0.00 0.00 0.00 35 1006.6
20260505193820 80 255 6.0 20.0 0.00 0.00 0.00 38 1006.7
20260505193317 79 254 8.0 24.0 0.00 0.00 0.00 39 1006.8
20260505192815 79 277 9.0 24.0 0.00 0.00 0.00 40 1006.8